TimeEST,TemperatureF,Dew PointF,Humidity,Sea Level PressureIn,VisibilityMPH,Wind Direction,Wind SpeedMPH,Gust SpeedMPH,PrecipitationIn,Events,Conditions,WindDirDegrees,DateUTC
12:09 AM,32.0,23.0,69,30.18,10.0,SSW,3.5,-,N/A,,Clear,210,2013-01-04 05:09:00
12:51 AM,32.0,23.0,69,30.18,10.0,SSW,3.5,-,N/A,,Scattered Clouds,200,2013-01-04 05:51:00
1:15 AM,32.0,23.0,69,30.18,10.0,Calm,Calm,-,N/A,,Scattered Clouds,0,2013-01-04 06:15:00
1:36 AM,32.0,23.0,69,30.18,10.0,Calm,Calm,-,N/A,,Scattered Clouds,0,2013-01-04 06:36:00
1:57 AM,30.2,23.0,75,30.18,10.0,Calm,Calm,-,N/A,,Clear,0,2013-01-04 06:57:00
2:18 AM,32.0,23.0,69,30.19,10.0,Calm,Calm,-,N/A,,Scattered Clouds,0,2013-01-04 07:18:00
2:39 AM,32.0,23.0,69,30.20,10.0,SSW,4.6,-,N/A,,Scattered Clouds,200,2013-01-04 07:39:00
3:00 AM,32.0,23.0,69,30.20,10.0,SW,4.6,-,N/A,,Scattered Clouds,220,2013-01-04 08:00:00
3:21 AM,32.0,23.0,69,30.20,10.0,SW,5.8,-,N/A,,Mostly Cloudy,220,2013-01-04 08:21:00
3:42 AM,32.0,23.0,69,30.20,10.0,SSW,3.5,-,N/A,,Mostly Cloudy,210,2013-01-04 08:42:00
4:03 AM,32.0,23.0,69,30.20,10.0,SSW,3.5,-,N/A,,Scattered Clouds,210,2013-01-04 09:03:00
4:24 AM,32.0,23.0,69,30.20,10.0,SW,3.5,-,N/A,,Mostly Cloudy,230,2013-01-04 09:24:00
4:48 AM,32.0,23.0,69,30.20,10.0,SW,3.5,-,N/A,,Scattered Clouds,220,2013-01-04 09:48:00
5:09 AM,32.0,23.0,69,30.20,10.0,SW,4.6,-,N/A,,Mostly Cloudy,220,2013-01-04 10:09:00
5:50 AM,32.0,21.2,64,30.21,10.0,SW,3.5,-,N/A,,Overcast,230,2013-01-04 10:50:00
6:45 AM,32.0,21.2,64,30.21,10.0,WSW,5.8,-,N/A,,Mostly Cloudy,250,2013-01-04 11:45:00
8:50 AM,37.4,21.2,52,30.21,-9999.0,WSW,4.6,-,N/A,,Mostly Cloudy,250,2013-01-04 13:50:00
9:45 AM,37.4,21.2,52,30.21,10.0,WSW,10.4,-,N/A,,Mostly Cloudy,250,2013-01-04 14:45:00
10:45 AM,37.4,21.2,52,30.21,10.0,West,9.2,-,N/A,,Overcast,260,2013-01-04 15:45:00
11:50 AM,39.2,21.2,49,30.18,10.0,West,17.3,-,N/A,,Overcast,270,2013-01-04 16:50:00
12:45 PM,39.2,21.2,49,30.15,10.0,West,16.1,24.2,N/A,,Scattered Clouds,260,2013-01-04 17:45:00
1:45 PM,41.0,21.2,45,30.11,10.0,WSW,11.5,17.3,N/A,,Clear,250,2013-01-04 18:45:00
2:45 PM,42.8,21.2,42,30.10,10.0,WSW,16.1,23.0,N/A,,Clear,250,2013-01-04 19:45:00
3:50 PM,42.8,21.2,42,30.10,10.0,West,18.4,24.2,N/A,,Clear,270,2013-01-04 20:50:00
4:50 PM,41.0,21.2,45,30.10,10.0,West,10.4,19.6,N/A,,Clear,260,2013-01-04 21:50:00
5:45 PM,39.2,21.2,49,30.10,10.0,WSW,10.4,17.3,N/A,,Clear,240,2013-01-04 22:45:00
6:55 PM,39.2,21.2,49,30.13,10.0,WSW,9.2,17.3,N/A,,Clear,240,2013-01-04 23:55:00
7:55 PM,37.4,21.2,52,30.14,10.0,WSW,10.4,-,N/A,,Clear,250,2013-01-05 00:55:00
9:45 PM,37.4,21.2,52,30.15,10.0,West,9.2,17.3,N/A,,Clear,260,2013-01-05 02:45:00
10:09 PM,35.6,21.2,56,30.15,10.0,WSW,11.5,18.4,N/A,,Clear,240,2013-01-05 03:09:00
10:51 PM,35.6,21.2,56,30.16,10.0,SW,6.9,-,N/A,,Clear,230,2013-01-05 03:51:00
11:12 PM,35.6,21.2,56,30.16,10.0,SW,6.9,-,N/A,,Clear,230,2013-01-05 04:12:00
11:33 PM,35.6,21.2,56,30.16,10.0,WSW,9.2,16.1,N/A,,Clear,250,2013-01-05 04:33:00
11:54 PM,35.6,21.2,56,30.16,10.0,WSW,9.2,17.3,N/A,,Clear,240,2013-01-05 04:54:00